CZ-6A DEB, 56628

Orbit data source: Space-Track

CZ-6A DEB, 56628 is space debris in SSO originally from a launch on Fri, 11 Nov 2022 UTC launched from the Taiyaun Space Center, China (TSC). Debris objects in space refer to the collection of defunct objects orbiting the Earth. Examples of debris include non-operational satellites, rocket bodies, and fragments generated from explosions, collisions, or faulty payload assembly.

Loading next visibility...
Identifier
56628, 2022-151AFC
Orbit
SSO
Country
Flag of CNCN / PRC
Related business
Manufacturer
SAST
Mission
Spacecraft
Bus & Motor
Unknown
Mass
Unknown
Launch date (UTC)
2022-11-11 (4 years ago)
Launch vehicle
Unknown
Launch site
Taiyaun Space Center, China (TSC)
Object type
Payload
Rocket body
Debris
Shape & HBR
Unknown shape, 0.1 m
Radar Cross Section
Small (<0.1 m²)

Expand to show TLE details & history
Last TLE update: 1 day ago

TLE from 1 day ago
0 CZ-6A DEB
1 56628U 22151AFC 26263.69107515  .00000454  00000-0  30009-3 0  9999
2 56628  98.8814 251.2824 0072880 103.0523 257.8794 14.05250664125867
Epoch: 2026-09-20T16:35Z
TLE epoch observation values (Epoch: 2026-09-20T16:35:08.892Z)
Latitude
0.00003°
Longitude
2.91372°
Altitude
890.029 km
Speed
7.401 km/s
True Right ascension
16h 45m 07s
True Declination
0° 00' 00"
Sunlit
Object was in daylight at epoch
Visualization orbit readout
Latitude
Unknown
Longitude
Unknown
Altitude
Unknown
Speed
Unknown
Apparent Right ascension
Unknown
Apparent Declination
Unknown
Sunlit
N/A
Visualization observer readout
Local Sidereal Time
15:13:07
Azimuth
Unknown
Elevation
Unknown
Doppler factor
Unknown
Orbital elements
Apogee altitude
925.701 km
Perigee altitude
820.011 km
Semi-major axis
7,250.993 km
Eccentricity
0.00729
Inclination
98.8814°
RAAN
251.2824°
Arg. of periapsis
103.0523°
True anomaly
257.06446°
Mean anomaly
257.8794°
Eccentric anomaly
257.47177°
Mean motion
3.51517 °/min
Orbital period
102.41 mins
BSTAR
0.00030009
Loading maneuver chart data...
Computing Atmospheric mass density...
Loading historical data...
Loading historical data...
Loading historical data...
Loading historical data...
Loading historical data...
Loading historical data...
Loading historical data...

Documentation

Showing up to 5 results
|